[[{"header":{"parameterUnit":"m.s-1","parameterCategory":1,"la1":30.2991,"la2":30.254,"lo1":-89.0895,"lo2":-89.0444,"dy":0.0017,"dx":0.0017,"nx":28,"ny":28,"refTime":"2025-04-03T21:00:00:Z","depth":0,"parameterNumber":2,"parameterNumberName":"U-component_of_WINDS"},"data":[0,0,0,0,0,0,0,0,0,0,0,0,0,0,0,0,0,0,0,0,0,0,0,0,0,0,0,0,0,0,0,0,0,0,0,0,0,0,0,0,0,0,0,0,0,0,0,0,0,0,0,0,0,0,0,0,0,0,-5.197,-5.1971,0,-5.2092,-5.2094,-5.2095,-5.2104,-5.2103,-5.2101,-5.21,-5.2222,-5.2227,-5.2231,0,0,0,0,0,0,0,0,0,0,0,0,0,-5.174,-5.1744,-5.1969,-5.1971,-5.1973,-5.2092,-5.2094,-5.2095,-5.2104,-5.2103,-5.2101,-5.2099,-5.2221,-5.2226,-5.2232,0,0,0,0,0,0,0,0,0,0,0,0,0,-5.1849,-5.1746,-5.1969,-5.1991,-5.1995,-5.2092,-5.2094,-5.2096,-5.2105,-5.2103,-5.2101,-5.2099,-5.2219,-5.2226,-5.2232,-5.2315,0,0,-5.2253,-5.2256,0,0,0,0,0,0,0,0,-5.1843,-5.1857,-5.1987,-5.199,-5.1994,-5.2081,-5.2058,-5.2169,-5.2105,-5.2063,-5.21,-5.2098,-5.2177,-5.2187,-5.2214,-5.232,-5.2325,-5.2254,-5.2258,-5.2261,-5.2262,0,0,0,0,0,0,0,-5.1835,-5.1852,-5.2018,-5.1988,-5.1993,-5.1995,-5.2008,-5.2079,-5.2129,-5.2066,-5.2067,-5.2082,-5.2178,-5.2208,-5.2217,-5.2327,-5.2253,-5.2259,-5.2264,-5.2266,-5.2507,-5.2509,0,0,0,0,0,0,-5.1824,-5.1846,-5.2014,-5.2022,-5.1912,-5.2,-5.2015,-5.2055,-5.2129,-5.2138,-5.2083,-5.2082,-5.2197,-5.2209,-5.2221,-5.2322,-5.2261,-5.2267,-5.2271,-5.2505,-5.2508,-5.251,0,0,0,0,0,0,-5.1819,-5.1839,-5.2009,-5.1934,-5.1956,-5.2006,-5.2051,-5.2058,-5.2088,-5.2142,-5.215,-5.2104,-5.2196,-5.2212,-5.2292,-5.2326,-5.227,-5.2276,-5.2502,-5.2506,-5.2509,-5.2523,0,0,0,0,0,0,-5.1812,-5.1837,-5.1869,-5.1935,-5.196,-5.2078,-5.2053,-5.2062,-5.21,-5.2099,-5.2164,-5.2172,-5.2196,-5.2281,-5.2298,-5.2334,-5.2281,-5.2499,-5.2504,-5.2508,-5.252,-5.2527,-5.2533,0,0,0,0,0,-5.1804,-5.1867,-5.1871,-5.1891,-5.2001,-5.208,-5.2094,-5.212,-5.2103,-5.2135,-5.217,-5.217,-5.232,-5.2289,-5.2309,-5.2347,-5.2497,-5.2502,-5.2507,-5.2517,-5.2525,-5.2533,0,0,0,0,0,0,-5.1803,-5.1876,-5.1881,-5.1967,-5.2018,-5.2081,-5.2122,-5.2129,-5.2184,-5.218,-5.221,-5.2224,-5.2303,-5.2334,-5.2298,-5.2431,-5.2407,-5.2416,-5.2407,-5.2416,-5.2422,-5.2412,-5.2287,0,0,0,0,0,-5.1813,-5.1871,-5.1932,-5.2003,-5.2028,-5.2071,-5.2106,-5.2123,-5.2175,-5.2196,-5.2237,-5.2287,-5.2345,-5.2383,-5.2439,-5.2526,-5.2539,-5.2562,-5.2568,-5.2573,-5.258,-5.2627,-5.2637,-5.2527,-5.2527,-5.2527,0,0,-5.1833,-5.1881,-5.1916,-5.2004,-5.2045,-5.2103,-5.2089,-5.2152,-5.2195,-5.2205,-5.2282,-5.2315,-5.2373,-5.2456,-5.2494,-5.2483,-5.2614,-5.258,-5.2584,-5.2588,-5.2633,-5.2644,-5.2653,-5.2531,-5.253,-5.253,0,0,-5.1901,-5.1944,-5.2007,-5.2048,-5.2111,-5.214,-5.2155,-5.2218,-5.224,-5.2319,-5.2328,-5.238,-5.2481,-5.2521,-5.2555,-5.2641,-5.2643,-5.2659,-5.2691,-5.2737,-5.2745,-5.2753,-5.2782,-5.2792,-5.2666,-5.2666,-5.2666,0,-5.1918,-5.2008,-5.2038,-5.2101,-5.2139,-5.2153,-5.2217,-5.2256,-5.2333,-5.2359,-5.2346,-5.2473,-5.2513,-5.2605,-5.2626,-5.2654,-5.2672,-5.2649,-5.2742,-5.275,-5.2758,-5.2785,-5.2796,-5.2667,-5.2667,-5.2667,-5.2667,0,-5.2025,-5.2088,-5.2131,-5.2207,-5.2251,-5.2314,-5.2352,-5.2393,-5.2407,-5.2436,-5.2516,-5.2566,-5.2632,-5.2656,-5.267,-5.2751,-5.2742,-5.2736,-5.2711,-5.2769,-5.2795,-5.2806,-5.2669,-5.2669,-5.2668,-5.2668,0,0,-5.2092,-5.2185,-5.22,-5.2235,-5.2306,-5.2354,-5.2419,-5.2486,-5.2519,-5.2573,-5.2626,-5.2712,-5.2707,-5.2745,-5.2764,-5.2804,-5.2867,-5.2793,-5.2794,-5.2803,-5.2958,-5.2961,-5.2973,-5.2871,-5.2873,-5.2874,-5.2953,0,-5.2165,-5.228,-5.231,-5.2407,-5.2464,-5.248,-5.2536,-5.2585,-5.2615,-5.2668,-5.2701,-5.2761,-5.2751,-5.2774,-5.2815,-5.2851,-5.2898,-5.2846,-5.2918,-5.2921,-5.29,-5.2987,-5.2989,-5.3061,-5.2963,-5.2965,-5.2967,0,-5.2265,-5.2322,-5.2425,-5.249,-5.2515,-5.2564,-5.2628,-5.268,-5.2736,-5.2755,-5.2799,-5.2815,-5.2881,-5.2856,-5.2948,-5.2911,-5.2944,-5.2966,-5.2969,-5.2975,-5.2945,-5.2992,-5.3084,-5.3094,-5.2984,-5.2982,-5.2981,0,-5.2301,-5.2404,-5.2479,-5.2508,-5.2585,-5.262,-5.2653,-5.2708,-5.2747,-5.2803,-5.2828,-5.2891,-5.2925,-5.2973,-5.3004,-5.2984,-5.3093,-5.3071,-5.3109,-5.3108,-5.3129,-5.3126,-5.3225,-5.3154,-5.3154,-5.3154,-5.3153,0,-5.2378,-5.244,-5.2496,-5.2541,-5.2611,-5.2646,-5.2714,-5.2748,-5.2797,-5.2849,-5.2867,-5.2915,-5.2955,-5.3009,-5.3035,-5.3106,-5.3121,-5.3138,-5.3143,-5.3135,-5.3132,-5.3153,-5.3148,-5.3157,-5.3156,-5.3155,-5.3155,0,-5.2428,-5.2468,-5.255,-5.2618,-5.2636,-5.2685,-5.2742,-5.2787,-5.2819,-5.2885,-5.2902,-5.2952,-5.3016,-5.3054,-5.3135,-5.3152,-5.323,-5.3235,-5.3211,-5.3213,-5.3248,-5.3243,-5.3361,-5.3378,-5.3299,-5.3299,-5.33,0,-5.2473,-5.2521,-5.2594,-5.2631,-5.2665,-5.2725,-5.2764,-5.2801,-5.2842,-5.2911,-5.2947,-5.3013,-5.3067,-5.3169,-5.3212,-5.3274,-5.3279,-5.3316,-5.3288,-5.3278,-5.3276,-5.3272,-5.3276,-5.3319,-5.332,-5.3321,-5.3321,0,-5.2548,-5.2566,-5.2623,-5.2688,-5.2735,-5.2788,-5.284,-5.2869,-5.2914,-5.2959,-5.3026,-5.3068,-5.3152,-5.3216,-5.3282,-5.3316,-5.3326,-5.3331,-5.3342,-5.3332,-5.3316,-5.3323,-5.3221,-5.3327,-5.3326,-5.3326,-5.3325,-5.3325,-5.2595,-5.2638,-5.2697,-5.276,-5.2804,-5.2853,-5.2898,-5.2937,-5.2993,-5.3065,-5.3083,-5.3153,-5.3209,-5.3299,-5.3335,-5.339,-5.3383,-5.3401,-5.3405,-5.3408,-5.3408,-5.331,-5.3402,-5.3402,-5.3402,-5.3402,-5.3402,0,-5.2669,-5.2708,-5.2767,-5.2839,-5.2889,-5.2897,-5.2955,-5.2996,-5.3057,-5.311,-5.3164,-5.324,-5.3304,-5.3353,-5.3418,-5.3452,-5.3458,-5.3467,-5.3464,-5.3471,-5.3411,-5.3393,-5.3461,-5.3461,-5.3461,-5.3461,-5.3461,-5.3461,-5.2713,-5.2787,-5.2812,-5.2908,-5.2946,-5.3015,-5.3048,-5.3093,-5.3135,-5.322,-5.3273,-5.3306,-5.3357,-5.3426,-5.3484,-5.3497,-5.3519,-5.3527,-5.354,-5.3482,-5.3475,-5.3469,-5.3453,-5.3532,-5.3532,-5.3596,-5.3596,-5.3597]},{"header":{"parameterUnit":"m.s-1","parameterCategory":1,"la1":30.2991,"la2":30.254,"lo1":-89.0895,"lo2":-89.0444,"dy":0.0017,"dx":0.0017,"nx":28,"ny":28,"refTime":"2025-04-03T21:00:00:Z","depth":0,"parameterNumber":3,"parameterNumberName":"V-component_of_WINDS"},"data":[0,0,0,0,0,0,0,0,0,0,0,0,0,0,0,0,0,0,0,0,0,0,0,0,0,0,0,0,0,0,0,0,0,0,0,0,0,0,0,0,0,0,0,0,0,0,0,0,0,0,0,0,0,0,0,0,0,0,3.9829,3.983,0,3.9946,3.9947,3.9949,3.9976,3.9976,3.9975,3.9974,4.0092,4.0095,4.0099,0,0,0,0,0,0,0,0,0,0,0,0,0,3.9629,3.9633,3.9829,3.983,3.9832,3.9946,3.9947,3.9949,3.9977,3.9976,3.9975,3.9974,4.009,4.0095,4.01,0,0,0,0,0,0,0,0,0,0,0,0,0,3.9728,3.9634,3.9828,3.9859,3.9863,3.9945,3.9947,3.9949,3.9977,3.9976,3.9974,3.9973,4.0089,4.0095,4.01,4.0159,0,0,4.0118,4.012,0,0,0,0,0,0,0,0,3.9722,3.9735,3.9853,3.9857,3.9862,3.9945,3.992,4.002,3.9977,3.9934,3.9974,3.9973,4.0044,4.0053,4.0078,4.0165,4.017,4.0118,4.0122,4.0124,4.0126,0,0,0,0,0,0,0,3.9716,3.973,3.9875,3.9855,3.986,3.9867,3.988,3.9939,3.9994,3.9937,3.994,3.9953,4.0046,4.0072,4.0081,4.0172,4.0118,4.0123,4.0127,4.0129,4.0318,4.0319,0,0,0,0,0,0,3.9703,3.9725,3.9871,3.9879,3.9788,3.9872,3.9886,3.992,3.9993,4.0003,3.9954,3.9954,4.0063,4.0074,4.0085,4.0162,4.0124,4.013,4.0133,4.0316,4.0318,4.032,0,0,0,0,0,0,3.9699,3.9716,3.9867,3.9802,3.9822,3.9877,3.9914,3.9923,3.9949,4.0006,4.0016,3.9971,4.0062,4.0077,4.0142,4.0166,4.0132,4.0138,4.0314,4.0317,4.0319,4.0315,0,0,0,0,0,0,3.9693,3.9714,3.9737,3.9803,3.9825,3.9921,3.9916,3.9926,3.9959,3.996,4.0024,4.0034,4.0062,4.0133,4.0148,4.0174,4.0142,4.0312,4.0315,4.0318,4.0313,4.0317,4.032,0,0,0,0,0,3.9686,3.973,3.9738,3.9756,3.9855,3.9923,3.9936,3.9969,3.9961,3.9985,4.0022,4.0032,4.0161,4.0139,4.0156,4.0184,4.0311,4.0314,4.0318,4.0311,4.0316,4.032,0,0,0,0,0,0,3.9664,3.9739,3.9749,3.9815,3.9863,3.9927,3.9958,3.9972,4.0021,4.002,4.0058,4.0073,4.0136,4.0166,4.0141,4.0247,4.0236,4.0243,4.0225,4.023,4.0233,4.0225,4.0147,0,0,0,0,0,3.9668,3.9717,3.9779,3.9832,3.9855,3.9903,3.9933,3.9955,4.0005,4.0025,4.0067,4.0115,4.0167,4.02,4.025,4.0317,4.0333,4.0345,4.0348,4.0351,4.0357,4.0398,4.0405,4.0331,4.0331,4.0331,0,0,3.9674,3.9721,3.9749,3.9829,3.9868,3.9919,3.9919,3.9971,4.001,4.0033,4.0098,4.013,4.0186,4.0254,4.0285,4.0281,4.0381,4.0355,4.0357,4.0362,4.0402,4.0409,4.0415,4.0333,4.0333,4.0332,0,0,3.9713,3.9752,3.9802,3.9842,3.9903,3.9934,3.9946,4.001,4.0033,4.0099,4.0118,4.0164,4.0252,4.0292,4.0324,4.0382,4.0394,4.0397,4.0415,4.0455,4.0461,4.0466,4.0489,4.0497,4.0403,4.0403,4.0403,0,3.9713,3.9791,3.9826,3.9879,3.9915,3.9939,3.9991,4.0028,4.0101,4.0125,4.0119,4.0233,4.0272,4.0351,4.0365,4.0389,4.0406,4.039,4.0457,4.0463,4.0469,4.0491,4.0499,4.0403,4.0403,4.0403,4.0403,0,3.979,3.9843,3.9876,3.9949,3.9988,4.004,4.0084,4.0119,4.0138,4.0171,4.0239,4.0288,4.0351,4.037,4.0388,4.0453,4.0449,4.045,4.0439,4.0475,4.0497,4.0506,4.0403,4.0403,4.0403,4.0403,0,0,3.9817,3.9911,3.9922,3.9957,4.0027,4.0069,4.0123,4.0186,4.0216,4.0266,4.0314,4.0389,4.0392,4.0428,4.0451,4.0486,4.0532,4.0483,4.0485,4.0492,4.0609,4.061,4.0619,4.054,4.0542,4.0543,4.0606,0,3.9866,3.9964,3.9999,4.008,4.0132,4.0157,4.0205,4.0253,4.0286,4.0334,4.037,4.0424,4.0422,4.0445,4.048,4.0519,4.0556,4.0515,4.0586,4.0588,4.0573,4.063,4.063,4.0686,4.0614,4.0616,4.0617,0,3.9935,3.9989,4.0076,4.0143,4.0166,4.0208,4.027,4.0316,4.0372,4.0393,4.0436,4.0457,4.0516,4.0502,4.0584,4.0555,4.0587,4.061,4.0613,4.0622,4.0605,4.0643,4.0705,4.0714,4.063,4.0629,4.0628,0,3.995,4.0043,4.0109,4.0137,4.0216,4.0245,4.0279,4.0334,4.0371,4.0425,4.045,4.0509,4.0542,4.0588,4.0626,4.0611,4.0706,4.0694,4.0727,4.0726,4.0746,4.0745,4.0816,4.0763,4.0763,4.0763,4.0763,0,4.0002,4.0055,4.0117,4.0157,4.0218,4.0258,4.0317,4.0352,4.0402,4.045,4.0475,4.052,4.0566,4.0617,4.0646,4.0712,4.0726,4.0746,4.0753,4.0745,4.0743,4.0767,4.0764,4.0765,4.0765,4.0764,4.0764,0,4.0028,4.0072,4.0145,4.0214,4.0233,4.0275,4.0335,4.0376,4.041,4.0471,4.0488,4.0542,4.0604,4.0646,4.0724,4.0744,4.0816,4.0822,4.0798,4.0802,4.0833,4.0831,4.0924,4.094,4.0874,4.0875,4.0875,0,4.0059,4.0101,4.0176,4.0211,4.0246,4.0301,4.0339,4.0381,4.042,4.0489,4.0522,4.0586,4.0639,4.0737,4.0783,4.0844,4.0853,4.0882,4.0862,4.0853,4.0856,4.0854,4.086,4.0885,4.0885,4.0886,4.0886,0,4.0111,4.0132,4.0186,4.025,4.0295,4.0347,4.0398,4.0425,4.0476,4.0519,4.0583,4.0625,4.0707,4.0771,4.0837,4.0872,4.0889,4.0892,4.0903,4.0896,4.0881,4.0892,4.0808,4.089,4.0889,4.0889,4.0889,4.0889,4.0143,4.0182,4.0242,4.0303,4.0347,4.0396,4.0439,4.048,4.0534,4.0605,4.0626,4.0694,4.0752,4.0843,4.0879,4.0933,4.0931,4.0946,4.0951,4.0955,4.0956,4.0871,4.0945,4.0945,4.0945,4.0945,4.0945,0,4.0198,4.0239,4.0294,4.0367,4.0416,4.0428,4.0487,4.0527,4.0586,4.0639,4.0692,4.0768,4.0831,4.0883,4.0949,4.0982,4.0991,4.0998,4.0997,4.1005,4.0953,4.0938,4.099,4.099,4.099,4.099,4.0989,4.0989,4.0233,4.0302,4.0329,4.0421,4.0461,4.0529,4.0562,4.0608,4.0651,4.0734,4.0787,4.0822,4.0875,4.0945,4.1004,4.1018,4.1042,4.1047,4.1063,4.1013,4.1008,4.1004,4.099,4.1051,4.1051,4.1111,4.1111,4.1112]}]]